Location: *
(47.2969°N, 10.2930°E)
Time: 05:47:07
(UTC+00:00)

Mayak - Pass Details

Date: 09 April 2020
Orbit: 581 x 600 km, 97.5° (Epoch: 02 June)

Event Time Altitude Azimuth Distance (km) Brightness Sun altitude
Rises 22:00:50 0° 8° (N) 2,823 ? -32.0°
Reaches altitude 10° 22:03:02 10° 4° (N) 1,916 ? -32.1°
Enters shadow 22:04:50 24° 355° (N) 1,225 ? -32.2°
